This is the latest recevied weather packets stored in our database for station/object YO6KXQ-10. If no packets are shown the sender has not sent any weather packets the latest 10 day(s).
| Time | Temp. | Humidity | Pressure | Rain* | Wind** | Luminosity | Snow |
|---|---|---|---|---|---|---|---|
| 1777125017 | 18.89° C | 41% | 1016.3 hPa | - | - | - | - |
| 1777123997 | 18.89° C | 42% | 1016.4 hPa | - | - | - | - |
| 1777122977 | 18.33° C | 42% | 1016.7 hPa | - | - | - | - |
| 1777121952 | 18.33° C | 42% | 1016.8 hPa | - | - | - | - |
| 1777120932 | 18.33° C | 42% | 1016.9 hPa | - | - | - | - |
| 1777119912 | 18.33° C | 42% | 1017.1 hPa | - | - | - | - |
| 1777118891 | 18.33° C | 42% | 1017.3 hPa | - | - | - | - |
| 1777117871 | 17.78° C | 43% | 1017.5 hPa | - | - | - | - |
| 1777116850 | 17.78° C | 44% | 1017.7 hPa | - | - | - | - |
| 1777115830 | 17.78° C | 45% | 1017.9 hPa | - | - | - | - |
| 1777114810 | 17.78° C | 44% | 1018 hPa | - | - | - | - |
| 1777113790 | 17.78° C | 44% | 1018.1 hPa | - | - | - | - |
| 1777112770 | 17.78° C | 44% | 1018.3 hPa | - | - | - | - |
| 1777111749 | 17.78° C | 44% | 1018.4 hPa | - | - | - | - |
| 1777110728 | 17.78° C | 44% | 1018.4 hPa | - | - | - | - |
| 1777109708 | 17.78° C | 43% | 1018.5 hPa | - | - | - | - |
| 1777108685 | 17.78° C | 43% | 1018.5 hPa | - | - | - | - |
| 1777107664 | 17.22° C | 45% | 1018.5 hPa | - | - | - | - |
| 1777106644 | 17.22° C | 44% | 1018.6 hPa | - | - | - | - |
| 1777105624 | 17.22° C | 48% | 1018.7 hPa | - | - | - | - |
| 1777104604 | 17.22° C | 46% | 1018.8 hPa | - | - | - | - |
| 1777103584 | 17.22° C | 56% | 1018.8 hPa | - | - | - | - |
| 1777102564 | 16.67° C | 56% | 1018.9 hPa | - | - | - | - |
| 1777101543 | 16.67° C | 56% | 1019 hPa | - | - | - | - |
| 1777100523 | 16.67° C | 56% | 1019 hPa | - | - | - | - |
* Rain since midnight (hover to see other rain measurements)
** Current wind speed in m/s (hover to see current wind gust speed)